Location: *
(41.0833°N, 73.4167°W)
Time: 12:17:01
(UTC+00:00)

MSX - Pass Details

Date: 22 October 2019
Orbit: 894 x 906 km, 98.7° (Epoch: 13 November)

Event Time Altitude Azimuth Distance (km) Brightness Sun altitude
Rises 08:37:55 0° 17° (NNE) 3,517 7.3 -29.7°
Reaches altitude 10° 08:40:22 10° 21° (NNE) 2,573 6.6 -29.3°
Maximum altitude 08:46:01 59° 101° (E) 1,030 4.3 -28.3°
Drops below altitude 10° 08:51:38 10° 180° (S) 2,560 6.1 -27.2°
Enters shadow 08:51:40 10° 180° (S) 2,570 6.1 -27.2°
